When you browse on this site, cookies collect data to enhance your experience and personalize the content and advertising you see.
Visit our Privacy Policy to learn more. By continuing to use the site, you agree to this use of cookies and data.
  • In United Kingdom
  • List of Countries
  • For 7 days
  • Water Temperature
  • Weather Map
  • Weather Widgets
  • user-avatar
    Login

    Hourly Weather Idzhewan

    Today, 16 September, Monday

    Time Temperature Precipitation Wind Pressure Humidity
    00:00 +18°C° 0.1 mm 1 mps 696 mmHg 80%
    01:00 +18°C° 0.1 mm 1 mps 696 mmHg 81%
    02:00 +16°C° 0.1 mm 1 mps 696 mmHg 81%
    03:00 +16°C° 0 mm 1 mps 696 mmHg 81%
    04:00 +16°C° 0.2 mm 1 mps 696 mmHg 83%
    05:00 +16°C° 0.2 mm 1 mps 696 mmHg 85%
    06:00 +15°C° 0.2 mm 1 mps 696 mmHg 86%
    07:00 +18°C° 0.2 mm 1 mps 696 mmHg 82%
    08:00 +18°C° 0.2 mm 2 mps 696 mmHg 78%
    09:00 +20°C° 0.2 mm 2 mps 695 mmHg 73%
    10:00 +20°C° 0 mm 2 mps 695 mmHg 74%
    11:00 +20°C° 0 mm 2 mps 694 mmHg 75%
    12:00 +20°C° 0 mm 2 mps 694 mmHg 76%
    13:00 +21°C° 0 mm 2 mps 693 mmHg 76%
    14:00 +21°C° 0 mm 2 mps 693 mmHg 76%
    15:00 +21°C° 0 mm 2 mps 692 mmHg 76%
    16:00 +20°C° 0 mm 2 mps 692 mmHg 80%
    17:00 +21°C° 0 mm 1 mps 692 mmHg 84%
    18:00 +20°C° 0 mm 1 mps 692 mmHg 87%
    19:00 +20°C° 0 mm 1 mps 692 mmHg 88%
    20:00 +20°C° 0 mm 1 mps 693 mmHg 90%
    21:00 +19°C° 0 mm 1 mps 693 mmHg 91%
    22:00 +19°C° 0 mm 1 mps 693 mmHg 90%
    23:00 +19°C° 0 mm 1 mps 692 mmHg 89%

    Tomorrow, 17 September, Tuesday

    Time Temperature Precipitation Wind Pressure Humidity
    00:00 +18°C° 0 mm 1 mps 692 mmHg 88%
    01:00 +18°C° 0 mm 1 mps 692 mmHg 87%
    02:00 +18°C° 0 mm 1 mps 692 mmHg 85%
    03:00 +17°C° 0 mm 2 mps 692 mmHg 83%
    04:00 +17°C° 0 mm 2 mps 692 mmHg 79%
    05:00 +17°C° 0 mm 2 mps 691 mmHg 75%
    06:00 +17°C° 0 mm 2 mps 691 mmHg 71%
    07:00 +20°C° 0 mm 2 mps 692 mmHg 63%
    08:00 +23°C° 0 mm 2 mps 692 mmHg 56%
    09:00 +26°C° 0 mm 2 mps 693 mmHg 48%
    10:00 +27°C° 0 mm 3 mps 692 mmHg 45%
    11:00 +28°C° 0 mm 3 mps 692 mmHg 42%
    12:00 +29°C° 0 mm 3 mps 692 mmHg 39%
    13:00 +29°C° 0 mm 3 mps 692 mmHg 38%
    14:00 +29°C° 0 mm 3 mps 691 mmHg 38%
    15:00 +29°C° 0 mm 4 mps 691 mmHg 38%
    16:00 +26°C° 0.1 mm 3 mps 691 mmHg 49%
    17:00 +24°C° 0.1 mm 3 mps 690 mmHg 61%
    18:00 +20°C° 0.1 mm 2 mps 690 mmHg 73%
    19:00 +19°C° 0.3 mm 2 mps 690 mmHg 77%
    20:00 +18°C° 0.3 mm 2 mps 691 mmHg 80%
    21:00 +18°C° 0.3 mm 2 mps 692 mmHg 84%
    22:00 +18°C° 0 mm 2 mps 692 mmHg 81%
    23:00 +17°C° 0 mm 2 mps 692 mmHg 79%

    Day after tomorrow, 18 September, Wednesday

    Time Temperature Precipitation Wind Pressure Humidity
    00:00 +18°C° 0 mm 1 mps 692 mmHg 76%
    01:00 +18°C° 0 mm 1 mps 692 mmHg 75%
    02:00 +18°C° 0 mm 1 mps 692 mmHg 74%
    03:00 +16°C° 0 mm 1 mps 693 mmHg 74%
    04:00 +16°C° 0 mm 1 mps 693 mmHg 72%
    05:00 +16°C° 0 mm 1 mps 693 mmHg 71%
    06:00 +16°C° 0 mm 1 mps 693 mmHg 70%
    07:00 +20°C° 0 mm 1 mps 694 mmHg 64%
    08:00 +22°C° 0 mm 1 mps 695 mmHg 58%
    09:00 +24°C° 0 mm 1 mps 695 mmHg 52%
    10:00 +25°C° 0 mm 1 mps 695 mmHg 50%
    11:00 +26°C° 0 mm 1 mps 695 mmHg 48%
    12:00 +27°C° 0 mm 2 mps 695 mmHg 46%
    13:00 +27°C° 0 mm 2 mps 695 mmHg 47%
    14:00 +27°C° 0 mm 2 mps 695 mmHg 48%
    15:00 +27°C° 0 mm 2 mps 694 mmHg 49%
    16:00 +26°C° 0 mm 2 mps 694 mmHg 57%
    17:00 +24°C° 0 mm 1 mps 694 mmHg 64%
    18:00 +22°C° 0 mm 1 mps 693 mmHg 72%
    19:00 +21°C° 0 mm 1 mps 694 mmHg 73%
    20:00 +21°C° 0 mm 1 mps 694 mmHg 75%
    21:00 +20°C° 0 mm 1 mps 694 mmHg 76%
    22:00 +20°C° 0 mm 1 mps 694 mmHg 76%
    23:00 +20°C° 0 mm 1 mps 694 mmHg 76%

    19 September, Thursday

    Time Temperature Precipitation Wind Pressure Humidity
    00:00 +19°C° 0 mm 1 mps 694 mmHg 76%
    01:00 +19°C° 0 mm 1 mps 694 mmHg 75%
    02:00 +19°C° 0 mm 1 mps 694 mmHg 75%
    03:00 +19°C° 0 mm 1 mps 694 mmHg 74%
    04:00 +17°C° 0 mm 2 mps 694 mmHg 73%
    05:00 +17°C° 0 mm 2 mps 694 mmHg 71%
    06:00 +17°C° 0 mm 2 mps 693 mmHg 69%
    07:00 +20°C° 0 mm 2 mps 694 mmHg 61%
    08:00 +24°C° 0 mm 1 mps 694 mmHg 53%
    09:00 +24°C° 0 mm 0 mps 695 mmHg 45%
    10:00 +27°C° 0 mm 1 mps 695 mmHg 42%
    11:00 +28°C° 0 mm 2 mps 694 mmHg 39%
    12:00 +29°C° 0 mm 3 mps 694 mmHg 37%
    13:00 +29°C° 0 mm 3 mps 694 mmHg 37%
    14:00 +28°C° 0 mm 3 mps 694 mmHg 37%
    15:00 +28°C° 0 mm 3 mps 693 mmHg 37%
    16:00 +26°C° 0 mm 2 mps 693 mmHg 41%
    17:00 +24°C° 0 mm 2 mps 693 mmHg 45%
    18:00 +22°C° 0 mm 1 mps 693 mmHg 49%
    19:00 +21°C° 0 mm 1 mps 693 mmHg 50%
    20:00 +20°C° 0 mm 1 mps 693 mmHg 51%
    21:00 +20°C° 0 mm 1 mps 694 mmHg 53%
    22:00 +19°C° 0 mm 1 mps 694 mmHg 54%
    23:00 +19°C° 0 mm 1 mps 694 mmHg 55%

    20 September, Friday

    Time Temperature Precipitation Wind Pressure Humidity
    00:00 +18°C° 0 mm 1 mps 694 mmHg 56%
    01:00 +15°C° 0 mm 0 mps 693 mmHg 60%
    02:00 +15°C° 0 mm 0 mps 693 mmHg 63%
    03:00 +14°C° 0 mm 0 mps 693 mmHg 67%
    04:00 +14°C° 0 mm 0 mps 693 mmHg 70%
    05:00 +14°C° 0 mm 0 mps 692 mmHg 73%
    06:00 +13°C° 0 mm 0 mps 692 mmHg 76%
    07:00 +16°C° 0 mm 1 mps 692 mmHg 74%
    08:00 +18°C° 0 mm 1 mps 692 mmHg 72%
    09:00 +20°C° 0 mm 1 mps 692 mmHg 69%
    10:00 +20°C° 0 mm 2 mps 692 mmHg 68%
    11:00 +21°C° 0 mm 2 mps 691 mmHg 68%
    12:00 +23°C° 0 mm 2 mps 691 mmHg 67%
    13:00 +23°C° 0 mm 2 mps 690 mmHg 67%
    14:00 +23°C° 0 mm 2 mps 690 mmHg 67%
    15:00 +24°C° 0 mm 2 mps 689 mmHg 67%
    16:00 +21°C° 0 mm 2 mps 689 mmHg 72%
    17:00 +21°C° 0 mm 1 mps 688 mmHg 78%
    18:00 +20°C° 0 mm 1 mps 688 mmHg 83%
    19:00 +19°C° 0 mm 1 mps 688 mmHg 84%
    20:00 +18°C° 0 mm 1 mps 688 mmHg 85%
    21:00 +16°C° 0 mm 0 mps 688 mmHg 87%
    22:00 +16°C° 0 mm 0 mps 688 mmHg 87%
    23:00 +15°C° 0 mm 0 mps 688 mmHg 87%

    21 September, Saturday

    Time Temperature Precipitation Wind Pressure Humidity
    00:00 +16°C° 0 mm 1 mps 688 mmHg 88%
    01:00 +18°C° 0 mm 1 mps 688 mmHg 87%
    02:00 +18°C° 0 mm 1 mps 688 mmHg 86%
    03:00 +18°C° 0 mm 1 mps 688 mmHg 86%
    04:00 +18°C° 0 mm 1 mps 688 mmHg 87%
    05:00 +16°C° 0 mm 1 mps 688 mmHg 88%
    06:00 +16°C° 0 mm 1 mps 688 mmHg 89%
    07:00 +18°C° 0 mm 1 mps 688 mmHg 83%
    08:00 +19°C° 0 mm 1 mps 688 mmHg 77%
    09:00 +19°C° 0 mm 2 mps 688 mmHg 71%
    10:00 +20°C° 0.1 mm 2 mps 688 mmHg 68%
    11:00 +21°C° 0.1 mm 3 mps 688 mmHg 66%
    12:00 +21°C° 0.1 mm 3 mps 688 mmHg 63%
    13:00 +20°C° 0.1 mm 3 mps 688 mmHg 64%
    14:00 +20°C° 0.1 mm 3 mps 688 mmHg 64%
    15:00 +19°C° 0.1 mm 3 mps 688 mmHg 64%
    16:00 +18°C° 0 mm 3 mps 688 mmHg 65%
    17:00 +16°C° 0 mm 3 mps 689 mmHg 66%
    18:00 +15°C° 0 mm 2 mps 689 mmHg 67%
    19:00 +14°C° 0 mm 2 mps 690 mmHg 70%
    20:00 +13°C° 0 mm 1 mps 691 mmHg 73%
    21:00 +12°C° 0 mm 1 mps 691 mmHg 76%
    22:00 +12°C° 0 mm 1 mps 691 mmHg 79%
    23:00 +11°C° 0 mm 1 mps 692 mmHg 82%
    Show more